Theta_e
309 312 313 315 325 332 334 333 325 324 325 325 324 325 325 331 337 346 338 337 341 339 336 335 334 332 331 329 326 324 323 323 322 320 320 321 321 321 320 320 319 319 320 320 320 321 320 319 319
308 313 313 318 330 337 336 331 323 321 324 325 324 325 326 334 336 337 338 337 339 338 336 334 333 331 330 327 325 324 323 321 320 320 320 319 320 319 319 319 319 319 320 320 319 319 318 317 316
312 313 315 324 329 334 336 324 321 320 321 325 326 325 327 335 335 337 338 337 338 337 337 334 332 330 328 326 324 323 321 320 320 320 319 318 319 319 319 319 319 319 319 318 319 319 317 316 316
312 314 315 321 325 331 332 331 318 318 320 323 323 326 331 333 335 338 336 338 337 337 336 333 331 330 327 325 324 322 320 319 319 318 318 319 319 319 318 318 318 318 317 318 317 316 317 316 316
312 314 319 323 324 323 323 326 320 319 318 323 322 325 333 334 337 337 336 337 336 335 335 333 329 327 326 325 323 320 319 319 318 317 317 317 317 317 318 317 317 316 316 317 316 315 316 315 315
314 315 318 321 321 322 323 324 323 318 316 321 322 322 335 333 336 336 336 336 337 335 334 332 328 326 325 324 322 319 318 318 316 315 315 314 313 315 316 317 317 317 315 315 316 315 315 313 313
312 315 316 317 319 320 321 322 319 320 316 317 322 322 334 332 337 336 337 335 335 334 333 330 327 325 324 322 318 314 315 313 310 307 306 306 307 310 312 313 315 316 315 315 316 315 315 314 313
311 312 313 313 315 318 319 319 319 318 317 318 320 322 334 333 336 334 336 334 333 333 332 329 327 325 323 321 316 310 307 307 306 304 305 311 313 313 312 312 310 310 312 315 316 316 315 315 313
311 311 311 312 313 315 316 317 317 315 314 317 321 327 332 334 333 334 334 334 334 334 331 329 327 326 324 321 316 308 306 306 305 305 309 312 313 314 313 309 311 313 315 316 317 317 315 314 313
310 310 310 311 310 311 312 314 315 314 314 313 320 327 333 332 332 332 332 334 334 333 331 328 327 326 324 320 314 309 308 310 309 310 311 312 313 311 313 313 314 314 316 316 316 315 314 314 314
311 310 310 310 311 311 311 310 310 311 312 313 315 328 332 331 330 331 332 332 333 331 330 328 328 327 324 320 315 313 311 310 310 310 312 311 314 313 314 314 314 315 315 315 315 314 313 313 312
310 310 310 311 311 310 310 310 309 309 310 311 313 322 331 330 330 331 331 332 331 330 330 328 328 327 324 320 316 312 311 311 310 310 311 313 314 314 314 314 314 316 315 315 314 313 313 312 312
312 311 311 310 310 308 309 308 308 308 309 310 315 323 330 330 330 331 331 331 330 330 329 328 327 326 324 321 316 312 312 311 310 309 310 313 314 314 314 314 314 315 315 315 314 313 313 312 311
311 310 310 310 310 310 309 308 307 308 308 308 311 314 323 328 330 331 331 330 330 330 330 328 327 326 324 321 316 312 312 311 310 310 309 313 313 314 314 314 314 315 315 315 314 313 312 311 310
309 309 309 309 309 309 309 308 308 308 307 308 309 309 313 319 327 330 331 330 330 331 330 328 327 326 324 321 316 313 312 311 310 310 310 312 313 313 314 314 314 315 315 314 314 313 312 311 311
308 308 309 310 310 310 308 308 310 308 307 307 307 307 308 309 319 327 331 330 330 332 331 328 327 326 323 321 317 313 312 311 310 310 310 311 313 313 313 314 314 315 316 314 314 314 313 312 313
310 308 308 309 310 311 309 309 310 310 308 307 307 308 308 309 309 321 328 330 330 330 330 329 327 326 323 321 317 313 312 311 310 310 310 311 312 313 313 313 313 315 316 315 314 314 313 312 313
309 308 308 308 309 311 310 308 309 309 309 307 306 307 308 308 309 312 322 329 329 329 331 330 328 326 323 321 316 313 312 311 310 310 310 310 312 313 313 313 313 315 316 315 314 315 315 314 314
309 308 308 308 309 309 309 309 309 309 309 307 306 306 306 307 308 310 317 325 328 329 330 330 328 325 323 320 315 312 312 311 310 310 310 310 312 312 313 312 313 315 316 316 315 315 316 316 316
308 310 309 309 308 309 310 309 308 308 308 308 308 306 306 306 306 307 310 319 326 328 329 330 328 325 322 319 315 313 312 311 310 310 309 311 311 312 313 312 313 315 316 316 316 316 317 317 316
309 309 310 311 309 309 307 306 307 307 308 308 309 309 308 307 306 305 305 309 322 326 328 330 328 325 323 319 316 314 312 311 310 310 309 311 311 312 312 312 313 314 316 316 316 316 317 317 316
306 309 310 310 312 311 306 309 308 309 309 308 309 308 308 308 306 307 306 306 309 322 326 329 328 326 323 320 315 314 312 311 310 310 308 310 311 311 311 312 313 314 315 316 317 316 317 317 317
303 305 307 310 311 311 310 311 310 309 309 310 310 309 309 308 307 307 306 307 308 311 323 327 328 326 324 320 315 314 312 311 311 310 309 308 311 311 311 311 312 313 315 316 315 315 316 317 317
302 306 306 309 312 313 310 311 309 308 309 310 310 311 309 309 308 307 307 308 307 308 317 324 327 327 325 321 315 314 313 312 310 310 309 309 310 311 311 311 311 312 314 315 316 316 316 317 317
303 306 310 314 314 313 310 311 310 308 309 310 311 311 310 309 309 308 307 306 307 308 315 323 326 326 325 322 315 314 314 312 311 310 309 309 310 311 311 311 311 312 314 315 316 316 316 316 316
302 304 310 314 312 310 308 310 309 308 308 308 309 309 310 309 309 309 308 306 307 310 315 320 324 326 325 322 315 314 315 312 311 310 309 309 309 309 310 310 311 311 314 314 315 315 316 317 316
303 305 305 309 310 309 307 307 307 308 309 309 308 309 308 310 310 310 308 307 307 309 315 320 323 325 324 321 316 315 316 312 312 310 310 309 308 308 310 310 311 312 313 314 315 314 315 315 315
302 304 307 307 314 315 310 308 307 307 307 307 309 308 308 309 309 307 306 306 307 309 314 320 322 323 323 321 317 316 316 313 312 311 310 309 308 308 309 310 311 312 312 313 315 314 315 315 316
304 306 305 308 308 312 311 308 309 309 309 309 308 309 307 308 308 305 303 303 307 309 315 320 320 321 322 320 317 316 315 312 312 311 309 309 308 307 309 310 311 311 312 313 314 313 314 314 316
299 304 306 307 309 308 309 310 309 308 307 308 307 306 304 304 304 306 302 302 304 308 315 319 319 320 320 319 318 317 314 312 311 310 309 308 308 307 309 310 312 312 312 313 313 313 314 314 315
Wind_Speed
11 10 12 7 3 5 9 13 2 1 3 6 6 6 6 9 5 5 11 11 25 26 22 19 13 15 14 13 12 12 11 11 11 10 10 10 10 11 11 10 10 10 10 10 10 10 10 11 11
12 8 6 3 4 8 9 14 6 4 8 5 5 3 5 6 7 8 8 18 26 22 20 18 15 14 13 13 12 12 12 11 10 10 10 10 10 10 10 10 11 11 10 10 11 11 11 12 12
12 6 2 3 6 11 11 6 5 8 6 1 2 1 4 4 9 11 18 21 23 22 22 18 15 16 14 13 12 12 12 11 10 10 10 10 9 10 10 10 11 10 11 12 11 12 13 13 12
7 5 3 4 13 13 17 9 8 4 4 2 3 6 7 4 5 14 18 23 23 21 21 19 18 16 14 13 13 12 11 11 10 11 11 10 10 10 10 10 11 12 12 13 13 13 14 14 13
6 4 4 7 13 16 18 4 7 6 6 8 5 4 6 5 15 19 20 23 23 18 20 18 16 13 12 14 13 12 11 11 11 11 11 10 10 9 10 11 11 12 12 13 14 14 14 14 13
3 3 5 9 14 17 14 7 1 4 8 2 3 6 5 15 17 18 17 20 20 19 20 17 15 11 13 15 14 12 11 11 10 10 9 10 9 10 10 10 10 11 13 13 15 15 14 13 15
3 5 9 12 14 16 13 4 2 6 8 7 3 4 5 9 20 21 16 22 20 20 21 17 14 12 13 13 12 11 11 9 8 8 8 8 9 10 10 10 10 11 12 13 15 14 14 14 19
4 5 12 13 11 16 16 2 3 5 9 7 6 3 6 10 23 20 13 17 17 20 19 16 13 12 12 12 10 9 8 7 7 8 8 10 10 10 10 7 11 13 16 16 15 18 20 15 16
4 4 9 13 13 14 11 2 3 3 5 2 2 5 11 24 23 23 18 18 19 21 19 20 13 13 11 10 10 8 8 7 7 8 9 11 8 6 6 10 13 16 16 18 16 19 18 20 18
6 5 10 10 12 8 12 7 3 5 6 6 4 8 20 21 20 20 20 18 21 22 20 18 15 14 14 10 10 7 8 7 7 6 8 5 3 8 8 11 12 15 16 15 16 18 20 18 16
7 9 13 15 11 7 6 10 9 7 8 10 8 15 14 14 17 18 20 21 21 21 20 18 17 16 16 12 13 8 10 9 7 5 6 6 5 6 8 7 10 11 11 15 15 17 19 20 21
16 16 15 16 12 5 6 7 11 10 10 8 7 5 14 14 13 17 21 23 22 25 23 19 18 18 16 14 13 10 9 8 7 6 7 7 4 6 6 7 8 11 12 14 14 16 17 19 21
17 15 17 14 14 9 7 10 12 11 10 9 4 7 12 11 12 18 22 22 22 24 24 22 19 19 19 17 14 13 11 9 9 7 8 8 5 6 5 8 8 9 11 13 14 15 17 18 18
11 13 14 12 14 16 10 15 9 9 10 12 6 7 8 12 13 18 22 23 24 26 29 25 22 21 21 19 17 15 11 12 9 7 8 9 6 6 7 7 7 8 11 13 14 16 17 17 17
14 18 18 17 11 11 4 16 18 18 13 14 11 10 10 10 18 19 23 24 26 29 30 30 25 23 23 20 19 16 14 12 12 10 8 8 6 8 7 7 6 10 10 12 14 16 16 17 18
9 12 14 3 19 14 10 19 8 17 17 19 12 11 11 12 12 23 26 26 29 25 29 32 26 26 25 23 21 18 17 14 12 11 10 10 9 7 7 7 6 11 9 10 13 15 17 17 18
9 13 16 14 17 12 17 13 13 20 13 20 17 15 12 14 12 23 27 30 31 30 29 31 31 29 27 24 22 20 17 16 14 12 10 11 10 10 7 6 9 11 10 12 13 16 19 18 19
9 18 17 23 11 15 15 21 11 13 8 13 11 12 15 15 16 24 29 32 31 33 28 32 30 31 29 26 24 21 19 17 16 14 11 12 10 12 9 8 11 11 10 12 15 16 16 21 19
21 24 24 18 12 20 17 17 17 14 15 12 9 8 9 9 12 28 33 34 33 32 31 34 33 31 31 32 30 26 26 21 18 16 14 13 11 12 9 8 11 11 10 11 12 11 11 10 9
23 26 32 22 22 10 14 16 13 13 15 15 12 12 11 9 10 9 24 30 34 36 35 35 37 33 32 33 33 28 29 23 21 19 17 15 13 13 12 10 11 9 13 12 11 7 4 1 1
24 28 23 23 15 18 5 11 14 15 16 15 18 16 13 17 13 10 11 26 31 34 37 38 39 39 33 31 31 26 25 21 22 20 20 18 15 14 13 13 12 12 9 10 10 7 4 3 1
25 20 23 21 16 19 6 18 18 12 19 24 25 21 18 16 12 15 13 16 28 32 36 36 38 39 36 35 33 37 31 27 25 29 24 21 17 15 15 14 13 12 11 9 9 7 5 5 4
28 18 22 25 20 19 21 14 27 10 18 22 16 25 22 20 17 15 14 26 32 36 34 38 39 39 38 37 35 37 28 26 29 28 25 23 20 17 16 15 15 14 11 9 7 6 7 6 6
19 13 22 19 17 16 26 18 22 20 28 9 17 17 21 20 18 17 17 29 33 36 36 36 39 40 41 38 39 37 35 31 31 29 29 27 24 20 18 17 16 15 11 10 9 9 9 7 11
19 11 8 11 10 14 20 17 26 9 18 17 19 12 11 15 17 17 17 12 27 32 35 36 37 38 41 40 40 39 37 37 37 36 33 31 29 25 22 20 18 17 14 11 10 10 12 11 12
20 16 9 15 8 24 18 12 22 22 31 24 7 7 8 11 10 15 18 11 25 33 37 36 38 38 41 42 39 38 35 36 36 37 35 33 32 29 25 22 19 18 15 13 11 12 14 13 13
5 18 17 23 21 7 7 20 21 18 17 12 10 14 11 9 6 9 12 12 23 32 36 39 38 39 40 42 38 37 36 37 34 35 34 33 31 29 26 23 21 18 17 15 12 13 15 13 15
18 9 11 10 9 11 6 22 13 14 24 13 9 10 10 9 8 8 6 8 20 29 34 37 39 39 41 40 38 38 36 38 37 37 35 33 31 30 28 26 23 21 19 17 15 14 14 15 19
8 13 11 9 15 5 2 6 3 7 3 2 9 2 2 5 8 8 8 7 18 25 29 32 33 34 35 37 36 36 36 39 39 38 37 35 33 31 31 28 25 23 21 19 17 16 16 18 23
20 20 21 13 21 17 12 7 3 4 6 6 7 4 5 6 8 7 9 8 12 20 27 28 30 32 35 36 35 35 35 37 39 38 38 36 34 32 33 30 26 24 22 21 19 20 18 20 24
Wind_Direction
324 329 316 288 246 221 257 256 216 259 259 43 39 27 336 39 30 108 111 122 130 136 148 146 148 139 126 119 113 108 101 94 87 79 73 67 59 55 49 42 37 35 29 19 9 5 1 352 346
326 328 288 273 247 252 251 239 148 240 71 59 52 311 283 90 79 112 104 132 132 140 145 144 147 138 126 120 115 109 103 95 89 81 75 67 64 60 53 48 40 33 26 19 13 6 3 359 358
316 282 267 225 237 252 266 65 358 66 58 19 155 68 3 88 106 123 134 135 132 137 149 147 146 135 128 123 121 114 107 98 91 83 78 69 65 62 55 46 38 31 25 19 12 7 3 357 354
303 189 246 252 267 248 248 300 81 343 120 97 285 112 82 18 122 126 142 136 131 146 152 153 141 137 132 129 126 118 108 101 94 85 76 69 64 55 49 42 37 33 28 22 13 5 1 360 359
234 267 245 256 250 265 284 298 25 348 292 172 200 157 97 80 102 129 145 131 136 153 152 155 147 140 137 134 127 118 111 105 96 87 80 70 64 56 47 41 39 33 28 22 16 10 11 10 5
276 223 249 250 250 253 249 267 282 234 269 64 175 271 91 134 132 141 145 131 150 150 147 152 149 139 144 138 128 121 116 109 99 92 85 73 65 59 54 47 40 35 30 23 17 12 13 20 18
251 277 247 255 271 290 297 106 188 263 257 241 131 232 113 161 135 146 152 139 153 149 149 157 150 149 151 148 140 130 125 115 99 92 78 67 62 59 56 45 40 38 30 25 20 22 28 28 32
305 259 262 262 262 266 283 23 22 298 267 349 130 222 162 143 134 144 146 143 160 152 156 159 162 156 154 153 150 141 128 112 96 86 80 72 55 48 44 46 42 41 39 30 25 24 25 8 32
275 258 249 250 250 265 275 241 277 98 316 286 156 51 105 124 136 150 158 158 161 156 158 160 166 163 158 160 160 149 133 114 98 89 85 69 61 61 21 52 49 43 33 31 23 26 31 39 36
213 221 247 261 278 293 323 326 320 310 242 253 152 86 116 133 153 160 169 168 165 168 170 174 172 169 158 159 155 148 129 101 92 87 88 105 83 70 55 36 36 37 34 36 34 37 38 37 31
217 244 268 279 282 324 303 317 312 287 288 272 221 159 147 160 175 175 176 179 176 180 177 177 177 170 166 171 148 167 139 152 134 129 111 109 75 55 52 43 42 46 34 47 39 38 41 43 44
251 262 269 277 286 321 279 294 276 275 257 288 1 112 154 175 188 184 181 181 180 183 183 182 182 174 176 171 169 167 166 150 137 143 130 91 84 86 77 73 53 55 43 50 46 47 44 47 57
257 255 260 286 292 255 270 248 260 275 278 274 85 90 161 183 193 196 184 185 184 189 190 187 184 179 179 175 167 170 173 152 163 149 139 128 120 112 98 82 64 68 56 55 57 50 48 52 62
289 302 288 255 264 271 247 263 247 249 250 262 213 184 195 188 194 193 182 184 191 193 194 190 186 184 182 175 173 171 177 167 154 154 142 141 135 120 98 90 80 70 69 64 65 53 54 59 68
278 280 274 261 254 255 272 265 239 245 253 249 237 203 193 213 192 194 191 187 193 198 186 188 188 185 183 177 177 173 170 176 161 160 153 141 134 136 118 108 100 86 78 73 68 63 66 67 73
282 275 267 225 230 237 186 253 256 230 225 240 225 245 196 206 202 197 192 189 197 200 185 183 186 187 183 180 176 172 177 168 164 170 162 154 149 139 131 118 119 102 92 92 73 68 71 75 76
233 264 263 258 229 227 194 255 239 240 233 225 227 224 231 199 198 201 193 188 192 203 187 181 183 185 182 180 175 171 178 171 170 166 170 162 156 145 142 146 132 115 107 95 87 85 79 84 71
220 242 246 248 253 221 221 232 247 277 254 235 229 217 220 226 201 198 196 186 189 196 194 185 183 184 181 178 172 170 170 174 172 170 177 170 166 153 160 160 140 121 123 113 109 94 89 85 85
269 276 273 265 223 243 239 240 249 241 249 248 239 250 230 245 217 193 193 187 183 188 194 185 183 185 180 177 171 169 171 172 173 173 181 170 177 160 160 154 146 134 140 136 131 119 95 103 104
260 259 260 279 280 258 247 237 242 243 246 253 236 216 222 236 232 199 188 183 182 185 192 185 183 186 184 180 180 176 174 178 175 177 181 173 182 171 164 166 152 148 153 154 153 147 126 103 68
276 257 268 266 276 281 243 264 259 252 260 248 244 237 222 213 219 209 187 188 186 188 189 187 182 182 186 181 176 171 166 167 172 183 178 181 185 176 174 165 167 155 150 162 178 183 175 129 267
275 298 291 269 259 255 171 270 250 245 240 234 234 232 227 222 212 207 190 186 191 193 192 187 183 181 185 181 173 171 169 163 184 183 179 181 183 186 177 174 171 167 147 160 167 184 181 161 160
270 268 274 299 260 257 259 273 259 226 246 243 232 229 225 220 214 211 202 186 190 195 192 189 183 181 185 182 177 176 171 176 181 179 177 180 181 188 181 177 173 169 151 158 153 161 165 166 169
278 292 260 277 270 248 237 228 262 227 233 226 230 239 212 213 211 212 211 185 188 189 192 189 184 183 182 185 181 179 177 174 169 172 176 179 182 186 185 179 177 171 162 159 154 148 141 127 141
254 266 243 226 225 235 228 226 237 241 225 228 223 238 223 199 201 203 206 181 182 181 185 187 186 183 182 186 182 182 183 181 176 173 175 176 181 185 185 182 176 172 166 163 149 146 132 137 144
245 225 233 231 195 232 208 229 243 236 254 261 246 248 264 221 199 200 198 186 176 178 181 184 186 184 183 186 182 183 182 180 179 181 179 179 184 186 183 182 178 173 168 164 158 152 144 149 142
271 235 247 259 286 234 211 244 256 278 222 224 241 237 228 235 219 187 184 169 171 176 180 181 185 186 183 185 181 181 182 180 178 181 184 184 185 183 182 180 175 171 170 166 166 161 149 140 145
223 199 220 222 227 238 243 226 223 205 231 231 230 224 231 224 200 170 157 164 164 175 180 182 185 185 183 182 180 181 181 179 182 182 181 181 181 181 180 177 175 172 171 168 171 161 155 150 143
283 250 221 284 233 250 241 244 340 285 30 314 277 180 313 237 195 170 165 162 161 168 176 180 182 182 179 178 179 179 179 175 180 178 181 180 180 180 178 176 177 171 171 170 172 165 159 153 148
254 269 230 221 227 234 247 276 24 17 61 12 344 6 30 336 306 175 146 152 162 168 171 176 178 177 176 175 176 178 172 171 172 174 179 180 179 180 179 174 178 172 171 171 172 167 166 160 156